Temperature
14 14 14 15 15 15 15 15 15 15 15 16 16 17 17 17 17 17 17 17 17 17 17 16 16 16 16 16 16 16 16 15 15 15 15 15 15 14
13 14 14 14 14 15 15 15 15 15 15 16 16 16 16 16 16 16 16 17 17 16 16 16 16 16 16 16 16 16 15 15 15 15 15 14 14 14
13 13 13 13 14 14 14 14 15 15 15 15 15 15 16 16 16 16 16 16 16 16 16 16 16 16 16 16 15 15 15 15 15 14 14 14 14 14
12 13 13 13 13 14 14 14 14 14 14 14 15 15 15 15 15 15 16 16 16 16 16 16 16 15 15 15 15 15 15 15 14 14 14 14 14 13
12 12 12 13 13 13 13 14 14 14 14 14 14 14 14 15 15 15 15 15 15 15 15 15 15 15 15 15 15 15 14 14 14 14 14 13 13 13
12 12 12 12 12 13 13 13 13 13 14 14 14 14 14 14 14 14 14 15 15 15 15 15 15 14 14 14 14 14 14 14 14 14 13 13 13 13
11 12 12 12 12 12 12 13 13 13 13 13 13 14 14 14 14 14 14 14 14 14 14 14 14 14 14 14 13 13 13 13 13 13 13 13 13 12
11 11 11 11 12 12 12 12 12 13 13 13 13 13 13 13 13 13 14 14 14 14 14 14 14 14 13 13 13 13 13 13 13 13 13 12 12 12
11 11 11 11 11 12 12 12 12 12 13 13 13 13 13 13 13 13 13 14 14 14 13 13 13 13 13 13 13 13 13 12 12 12 12 12 12 11
11 11 11 11 11 11 11 12 12 12 12 13 13 13 13 13 13 13 13 13 13 13 13 13 12 12 12 12 12 12 12 12 12 12 12 11 11 11
10 11 11 11 11 11 11 11 12 12 12 12 13 13 13 13 13 13 13 13 12 12 12 12 12 12 12 12 12 12 11 11 11 11 11 11 11 11
10 11 11 11 11 11 11 11 11 12 12 12 12 12 13 13 13 13 13 13 12 12 12 12 12 11 11 11 11 11 11 11 11 11 11 10 10 10
10 10 11 11 11 11 11 11 12 12 12 12 12 12 12 12 12 12 12 12 12 12 12 12 12 11 11 10 10 10 10 10 10 10 10 10 10 9
10 10 11 11 11 11 11 11 12 12 12 12 12 12 12 12 12 12 12 12 12 12 12 12 12 12 11 11 10 10 10 10 10 10 10 9 9 9
10 10 11 11 11 11 11 11 11 11 12 12 12 12 12 12 12 12 12 12 12 12 12 12 12 12 11 11 11 10 9 9 9 9 9 9 9 9
10 10 11 11 11 11 11 11 11 11 11 11 11 11 11 11 11 11 11 11 11 11 11 11 11 11 11 11 11 10 10 9 9 9 9 8 8 8
10 10 10 10 11 11 11 11 11 11 11 11 11 11 11 11 11 11 11 11 11 11 10 10 10 10 10 11 10 10 10 9 9 9 8 8 8 8
10 10 10 11 11 11 11 11 11 11 11 11 11 11 11 11 11 11 11 11 11 10 10 10 10 10 10 9 10 10 9 9 9 9 8 8 8 8
10 10 10 11 11 11 11 11 11 11 11 11 10 10 10 10 10 10 10 10 10 10 10 10 10 10 10 9 9 9 9 9 9 8 8 8 7 8
10 10 10 10 11 11 11 11 11 11 11 10 10 10 10 10 10 10 10 10 10 10 10 10 10 10 10 10 10 10 9 9 9 8 8 7 7 7
10 10 10 10 11 11 11 11 11 11 11 11 10 10 10 10 10 10 10 10 10 10 10 10 10 10 10 9 9 9 9 9 8 8 7 7 7 7
11 10 10 11 11 11 11 11 11 11 11 11 10 10 10 10 10 10 10 10 10 10 10 10 10 9 9 9 9 9 9 9 8 8 8 7 7 8
11 11 11 11 11 11 11 11 11 11 11 11 11 10 10 10 10 10 10 10 10 10 9 9 9 9 9 8 9 9 8 8 8 8 8 8 8 8
Wind_Speed
8 9 9 9 9 10 9 9 9 9 10 10 8 8 9 11 11 14 15 19 21 21 20 20 19 19 18 18 17 17 16 16 15 14 13 12 10 9
6 8 8 8 8 8 9 10 10 10 9 8 8 6 8 9 12 15 15 17 21 21 20 20 20 20 19 19 18 17 16 16 16 15 13 11 10 9
6 6 7 7 6 7 8 9 9 10 11 8 6 7 9 9 9 12 13 14 15 20 20 20 20 20 20 19 18 17 17 16 16 14 13 12 11 10
7 7 7 6 7 7 7 9 9 10 10 10 7 7 9 10 9 10 9 12 12 18 21 20 20 21 20 20 19 18 18 17 16 15 14 13 12 12
7 7 7 6 7 6 7 8 8 9 9 8 7 6 6 7 9 9 9 7 10 13 19 19 20 20 20 20 20 19 18 17 17 16 15 14 14 13
7 7 6 6 7 6 6 7 7 8 8 8 7 6 6 6 8 9 8 8 8 9 12 15 18 20 20 19 19 19 19 19 18 17 16 16 16 14
7 6 5 5 7 6 6 6 7 7 7 8 8 7 7 6 8 8 9 8 7 7 9 9 11 11 14 17 18 19 19 19 19 19 19 18 17 17
7 6 5 5 4 6 7 8 8 8 8 8 8 9 9 8 8 9 9 8 6 7 8 8 9 9 9 14 18 20 20 20 20 21 20 20 19 18
7 6 5 4 6 6 5 6 7 7 9 9 9 10 10 10 10 11 10 9 5 8 8 6 7 8 7 13 20 22 21 22 22 22 21 21 20 19
6 6 6 6 5 7 6 5 5 5 6 8 9 8 8 8 9 8 7 7 6 7 6 4 5 5 6 11 19 21 22 22 22 22 22 21 21 19
6 5 6 6 5 7 7 6 5 4 4 6 5 5 5 7 7 7 8 9 6 4 3 4 5 5 5 5 12 19 21 22 22 22 22 22 22 19
5 5 3 5 8 8 7 5 5 4 3 4 5 6 7 9 11 9 9 9 6 4 4 5 6 5 4 3 5 11 15 18 21 21 22 22 21 13
5 5 4 5 7 8 7 5 5 5 4 3 3 4 4 5 7 7 8 8 8 4 7 6 6 5 5 4 3 5 9 11 13 14 18 20 17 9
6 5 4 6 7 7 5 4 5 5 3 2 2 2 3 3 4 5 5 4 4 7 11 9 7 7 7 7 5 5 6 9 10 10 13 15 12 6
5 5 6 7 7 3 2 4 4 2 1 1 1 1 1 3 4 5 7 8 9 9 9 8 9 9 8 8 8 8 6 6 8 8 10 11 11 10
5 3 5 4 4 3 2 2 2 2 1 0 1 2 2 4 5 6 7 8 8 7 7 8 9 10 7 8 10 10 8 9 9 9 9 9 11 11
7 5 4 3 2 1 0 1 1 1 1 1 2 3 3 4 5 6 6 6 6 7 6 6 7 7 6 8 9 10 9 8 9 10 9 9 9 9
8 6 4 3 2 1 0 1 1 1 2 2 2 3 4 5 5 5 6 7 8 8 8 7 8 7 5 3 2 9 9 9 10 11 10 9 9 10
7 7 5 4 4 3 2 2 2 2 2 3 3 4 5 5 6 6 6 7 7 7 7 8 8 7 8 7 4 5 8 9 9 10 10 9 9 8
8 7 6 5 5 4 4 3 3 3 4 4 4 4 4 5 6 6 6 7 8 7 7 6 6 6 6 5 6 6 8 9 9 10 10 9 7 3
8 8 7 7 6 6 5 5 5 5 5 5 5 5 5 5 6 6 6 8 7 7 7 6 4 2 3 4 5 6 7 6 4 7 9 9 8 8
9 9 8 8 8 7 7 7 7 7 7 6 6 6 6 5 6 7 7 8 7 6 6 6 6 6 6 6 6 7 8 8 5 4 5 6 6 6
11 10 9 9 9 8 8 9 10 9 8 8 8 8 7 7 7 7 8 7 7 8 8 7 7 6 6 6 6 6 8 9 8 8 9 13 13 8
Wind_Direction
266 258 250 245 238 234 231 227 225 225 223 217 209 211 213 221 208 204 212 199 201 205 206 204 202 200 198 198 197 195 193 191 187 184 186 188 187 183
275 267 259 252 245 237 233 231 228 233 237 220 205 198 201 213 207 212 214 193 195 200 203 203 198 196 195 194 192 190 188 186 182 182 184 183 179 169
287 277 269 262 252 241 234 231 228 227 234 234 211 194 196 211 200 210 210 202 200 198 199 199 195 191 190 187 184 183 181 179 179 179 177 171 166 161
300 285 276 267 260 251 241 235 230 225 228 229 215 202 204 206 203 202 203 203 201 193 194 193 189 184 182 181 179 178 176 175 175 173 170 168 165 161
309 299 290 279 269 259 251 244 235 228 224 227 218 205 206 202 199 201 199 198 198 188 186 184 181 178 176 175 174 173 173 172 170 167 164 162 158 154
308 300 294 290 287 278 264 253 243 233 223 224 220 204 200 201 198 198 195 192 189 180 176 175 172 168 167 167 169 170 170 167 164 162 159 156 152 149
308 303 304 311 310 298 285 272 256 241 228 220 219 210 200 192 203 199 196 184 180 171 164 165 162 163 166 165 167 167 166 164 162 158 154 151 147 144
310 306 304 290 293 282 276 274 270 256 241 226 222 216 209 201 201 200 191 180 179 172 166 165 163 163 164 169 168 165 163 160 157 154 151 148 144 142
312 307 308 314 310 303 277 254 250 248 252 247 232 224 214 204 198 199 196 183 171 161 155 158 159 155 150 158 160 162 161 158 155 151 148 146 143 141
308 305 301 307 328 327 307 288 279 260 249 242 240 234 219 203 198 195 184 159 136 146 139 136 141 133 129 142 157 158 157 156 153 150 148 145 142 141
315 313 317 313 346 323 297 288 283 275 243 236 244 226 196 184 172 168 168 165 154 140 119 120 128 111 105 119 142 150 152 152 151 150 148 146 144 145
319 317 334 336 337 323 300 294 289 290 276 224 201 189 192 184 179 184 179 170 153 141 144 127 136 126 105 79 118 140 144 147 148 149 150 151 156 165
320 323 335 354 335 325 308 301 309 305 283 249 214 192 183 182 184 185 185 175 163 143 156 138 144 136 126 128 113 132 142 146 148 150 155 162 174 196
313 317 339 350 330 321 315 341 325 299 272 230 206 188 178 172 161 158 157 147 138 146 156 149 147 153 142 141 141 144 146 156 160 162 166 172 186 208
309 329 320 315 305 300 3 330 308 296 278 211 180 171 148 132 125 122 114 108 101 118 141 147 145 152 151 151 151 155 156 168 176 174 173 179 191 195
286 272 247 268 282 308 308 323 353 1 346 78 121 111 115 127 131 132 128 124 113 102 99 120 139 147 145 144 152 160 164 170 180 184 184 192 199 200
314 287 275 271 269 290 12 48 43 42 63 87 118 122 124 124 128 130 133 130 127 130 121 111 105 104 118 144 157 165 169 173 178 184 189 197 203 207
288 269 267 265 266 262 220 119 91 89 89 104 118 123 126 127 127 127 134 135 136 138 138 138 134 126 115 78 137 170 175 179 179 183 193 203 208 207
263 259 255 252 247 236 221 191 162 143 132 126 121 121 124 127 131 133 135 134 136 140 146 154 160 161 163 166 173 213 186 178 178 185 198 208 216 208
249 254 251 245 238 230 219 199 180 168 157 149 140 135 137 137 138 141 143 142 142 144 149 161 175 183 184 169 159 176 207 188 186 193 199 208 215 189
245 244 244 240 235 227 220 209 199 188 177 165 159 155 155 152 148 147 142 140 149 156 163 167 155 134 122 124 144 162 178 200 222 208 202 202 210 217
243 242 239 237 233 228 219 212 208 198 188 184 175 173 171 168 162 160 159 162 168 167 159 145 151 172 184 194 193 174 172 180 199 254 265 243 221 225
236 235 234 231 229 226 222 216 215 208 198 193 185 183 180 178 177 175 174 172 168 163 159 160 168 183 195 204 204 190 183 186 191 202 221 225 232 237
Height
1484 1485 1485 1486 1487 1489 1491 1494 1496 1497 1498 1499 1501 1504 1508 1511 1514 1518 1521 1524 1527 1530 1532 1535 1537 1540 1542 1545 1547 1549 1552 1554 1556 1557 1559 1560 1561 1562
1481 1481 1481 1482 1482 1483 1485 1487 1489 1491 1492 1494 1495 1498 1501 1505 1508 1511 1515 1518 1521 1524 1528 1531 1533 1536 1539 1541 1544 1546 1549 1551 1553 1555 1557 1558 1559 1560
1479 1478 1477 1477 1478 1478 1480 1481 1483 1485 1487 1489 1490 1492 1495 1499 1501 1505 1508 1512 1515 1519 1522 1526 1529 1532 1535 1538 1540 1543 1546 1548 1550 1552 1554 1556 1557 1558
1476 1475 1475 1474 1474 1474 1475 1476 1477 1479 1481 1483 1485 1487 1489 1493 1495 1498 1502 1505 1509 1512 1516 1520 1524 1527 1531 1534 1537 1540 1542 1545 1547 1549 1551 1553 1554 1555
1474 1473 1472 1471 1470 1470 1470 1471 1472 1474 1475 1478 1479 1482 1484 1487 1489 1492 1496 1499 1503 1506 1510 1514 1518 1522 1526 1530 1533 1536 1539 1541 1544 1546 1548 1550 1551 1552
1472 1471 1469 1468 1468 1467 1467 1467 1468 1469 1470 1472 1474 1476 1478 1481 1484 1486 1489 1493 1496 1500 1504 1508 1513 1517 1521 1524 1528 1531 1535 1538 1541 1543 1545 1547 1548 1550
1471 1469 1468 1466 1465 1464 1464 1464 1464 1465 1466 1467 1469 1471 1473 1475 1477 1480 1483 1486 1490 1493 1497 1502 1506 1510 1514 1519 1523 1527 1531 1534 1537 1540 1542 1544 1545 1547
1468 1467 1466 1464 1462 1461 1460 1460 1460 1461 1461 1462 1464 1465 1467 1469 1472 1474 1477 1480 1483 1487 1492 1496 1500 1504 1509 1513 1518 1523 1527 1530 1534 1536 1539 1541 1543 1544
1466 1465 1463 1462 1460 1459 1458 1457 1456 1456 1457 1458 1459 1460 1462 1464 1467 1469 1472 1474 1477 1481 1487 1491 1495 1500 1504 1509 1514 1519 1523 1527 1530 1533 1535 1538 1540 1541
1464 1463 1461 1460 1459 1457 1456 1455 1454 1453 1453 1454 1455 1456 1459 1460 1462 1464 1466 1469 1474 1478 1482 1486 1490 1495 1501 1506 1511 1515 1519 1523 1526 1529 1532 1534 1537 1538
1463 1461 1460 1458 1457 1455 1454 1453 1452 1451 1450 1450 1450 1452 1454 1456 1458 1461 1463 1466 1468 1473 1477 1481 1486 1492 1498 1502 1507 1512 1516 1520 1523 1526 1529 1531 1534 1536
1462 1460 1458 1457 1456 1454 1453 1452 1450 1449 1448 1448 1448 1449 1450 1452 1454 1457 1459 1462 1465 1469 1473 1478 1483 1489 1495 1500 1504 1509 1513 1517 1520 1523 1526 1529 1531 1533
1461 1459 1458 1456 1455 1453 1452 1450 1449 1447 1446 1446 1446 1446 1448 1449 1451 1454 1457 1460 1463 1466 1470 1475 1480 1485 1491 1497 1502 1506 1510 1514 1517 1520 1523 1526 1528 1531
1460 1458 1457 1455 1454 1452 1451 1449 1447 1446 1445 1445 1444 1445 1446 1448 1449 1451 1455 1458 1462 1465 1469 1473 1477 1483 1488 1493 1498 1503 1508 1511 1515 1518 1520 1523 1525 1527
1459 1457 1456 1455 1453 1452 1450 1448 1447 1446 1445 1444 1444 1444 1445 1447 1448 1450 1453 1456 1460 1464 1468 1472 1477 1481 1486 1490 1494 1499 1504 1508 1512 1515 1517 1519 1522 1524
1459 1457 1455 1454 1453 1451 1450 1448 1447 1445 1444 1444 1444 1444 1445 1446 1448 1450 1452 1455 1459 1463 1466 1471 1476 1480 1484 1489 1493 1496 1501 1504 1508 1512 1514 1517 1519 1520
1457 1456 1455 1454 1452 1451 1450 1448 1447 1446 1445 1444 1444 1444 1445 1446 1448 1450 1452 1455 1459 1462 1466 1470 1474 1478 1483 1487 1491 1495 1498 1502 1505 1508 1511 1513 1515 1516
1456 1455 1454 1453 1452 1451 1450 1449 1448 1447 1446 1445 1445 1445 1446 1447 1449 1451 1453 1456 1459 1462 1466 1469 1473 1477 1482 1486 1490 1493 1496 1499 1502 1504 1507 1509 1511 1512
1454 1454 1453 1452 1451 1450 1449 1449 1448 1448 1447 1447 1447 1447 1447 1449 1450 1452 1454 1457 1459 1462 1465 1469 1473 1477 1480 1484 1487 1491 1494 1496 1499 1501 1503 1505 1508 1509
1451 1451 1450 1450 1449 1449 1449 1448 1448 1448 1448 1448 1448 1448 1449 1450 1451 1453 1455 1457 1460 1463 1466 1469 1473 1476 1480 1483 1485 1487 1490 1493 1495 1497 1499 1501 1503 1504
1448 1447 1447 1447 1447 1447 1447 1447 1447 1447 1448 1448 1449 1449 1450 1451 1453 1454 1456 1458 1460 1463 1465 1468 1471 1474 1477 1480 1483 1485 1487 1489 1491 1494 1496 1497 1499 1499
1443 1443 1443 1443 1443 1443 1444 1444 1445 1446 1446 1447 1448 1449 1450 1452 1453 1455 1456 1458 1460 1463 1465 1467 1470 1473 1476 1479 1481 1483 1483 1485 1487 1489 1491 1493 1494 1496
1437 1437 1437 1438 1438 1439 1440 1441 1442 1443 1444 1445 1447 1448 1449 1451 1452 1454 1456 1458 1460 1462 1464 1466 1468 1471 1473 1476 1478 1480 1481 1482 1483 1484 1485 1487 1488 1489